| time (UTC) | temp F | wind direction | speed knots | gust knots | rain 1hr in | rain 24hr in | rain mn in | humidity % | barometer mb |
| 20260903043511 | 75 | 219 | 0.0 | 0.0 | 0.00 | 0.00 | 0.00 | 93 | 1014.9 |
| 20260903043021 | 75 | 219 | 0.0 | 0.0 | 0.00 | 0.00 | 0.00 | 93 | 1014.9 |
| 20260903042511 | 75 | 219 | 0.0 | 0.0 | 0.00 | 0.00 | 0.00 | 93 | 1014.9 |
| 20260903042011 | 75 | 219 | 0.0 | 0.0 | 0.00 | 0.00 | 0.00 | 93 | 1014.9 |
| 20260903041510 | 75 | 219 | 0.0 | 0.0 | 0.00 | 0.00 | 0.00 | 93 | 1014.8 |
| 20260903041010 | 75 | 219 | 0.0 | 0.0 | 0.00 | 0.00 | 0.00 | 93 | 1014.8 |
| 20260903040511 | 75 | 219 | 0.0 | 0.0 | 0.00 | 0.00 | 0.00 | 93 | 1014.8 |
| 20260903040009 | 76 | 219 | 0.0 | 0.0 | 0.00 | 0.00 | 0.00 | 93 | 1014.8 |
| 20260903035508 | 76 | 219 | 0.0 | 0.0 | 0.00 | 0.00 | 0.00 | 93 | 1014.8 |
| 20260903035007 | 76 | 219 | 0.0 | 0.0 | 0.00 | 0.00 | 0.00 | 93 | 1014.8 |
| 20260903034508 | 75 | 219 | 0.0 | 0.0 | 0.00 | 0.00 | 0.00 | 93 | 1014.8 |
| 20260903034007 | 76 | 219 | 0.0 | 0.0 | 0.00 | 0.00 | 0.00 | 93 | 1014.9 |
| 20260903033507 | 76 | 219 | 0.0 | 0.0 | 0.00 | 0.00 | 0.00 | 93 | 1014.9 |
| 20260903033013 | 76 | 219 | 0.0 | 0.0 | 0.00 | 0.00 | 0.00 | 93 | 1014.9 |
| 20260903032510 | 76 | 219 | 0.0 | 0.0 | 0.00 | 0.00 | 0.00 | 93 | 1015.0 |
| 20260903032006 | 76 | 219 | 0.0 | 0.0 | 0.00 | 0.00 | 0.00 | 93 | 1015.0 |
| 20260903031507 | 76 | 219 | 0.0 | 0.0 | 0.00 | 0.00 | 0.00 | 93 | 1015.0 |
| 20260903031008 | 76 | 219 | 0.0 | 0.0 | 0.00 | 0.00 | 0.00 | 92 | 1015.1 |
| 20260903030507 | 76 | 219 | 0.0 | 0.0 | 0.00 | 0.00 | 0.00 | 92 | 1015.1 |
| 20260903030006 | 76 | 219 | 0.0 | 0.0 | 0.00 | 0.00 | 0.00 | 92 | 1015.2 |
| 20260903025506 | 77 | 219 | 0.0 | 0.0 | 0.00 | 0.00 | 0.00 | 91 | 1015.2 |
| 20260903025005 | 77 | 219 | 0.0 | 0.0 | 0.00 | 0.00 | 0.00 | 91 | 1015.3 |
| 20260903024505 | 77 | 219 | 0.0 | 0.0 | 0.00 | 0.00 | 0.00 | 91 | 1015.3 |
| 20260903024005 | 77 | 219 | 0.0 | 0.0 | 0.00 | 0.00 | 0.00 | 91 | 1015.3 |
| 20260903023507 | 77 | 219 | 0.0 | 0.0 | 0.00 | 0.00 | 0.00 | 91 | 1015.3 |
| 20260903023005 | 77 | 219 | 0.0 | 0.0 | 0.00 | 0.00 | 0.00 | 91 | 1015.3 |
| 20260903022505 | 77 | 219 | 0.0 | 0.0 | 0.00 | 0.00 | 0.00 | 91 | 1015.3 |
| 20260903022005 | 78 | 219 | 0.0 | 0.0 | 0.00 | 0.00 | 0.00 | 90 | 1015.3 |
| 20260903021512 | 78 | 219 | 0.0 | 0.0 | 0.00 | 0.00 | 0.00 | 90 | 1015.4 |
| 20260903021007 | 78 | 219 | 0.0 | 0.0 | 0.00 | 0.00 | 0.00 | 90 | 1015.4 |
| 20260903020508 | 78 | 219 | 0.0 | 0.0 | 0.00 | 0.00 | 0.00 | 90 | 1015.3 |
| 20260903020004 | 78 | 219 | 0.0 | 0.0 | 0.00 | 0.00 | 0.00 | 89 | 1015.3 |
| 20260903015505 | 78 | 219 | 0.0 | 0.0 | 0.00 | 0.00 | 0.00 | 88 | 1015.3 |
| 20260903015004 | 78 | 219 | 0.0 | 0.0 | 0.00 | 0.00 | 0.00 | 88 | 1015.3 |
| 20260903014503 | 78 | 219 | 0.0 | 0.0 | 0.00 | 0.00 | 0.00 | 88 | 1015.2 |
| 20260903014005 | 78 | 219 | 0.0 | 0.0 | 0.00 | 0.00 | 0.00 | 88 | 1015.2 |
| 20260903013504 | 79 | 219 | 0.0 | 0.0 | 0.00 | 0.00 | 0.00 | 87 | 1015.1 |
| 20260903013004 | 79 | 219 | 0.0 | 0.0 | 0.00 | 0.00 | 0.00 | 87 | 1015.1 |
| 20260903012503 | 79 | 219 | 0.0 | 0.0 | 0.00 | 0.00 | 0.00 | 86 | 1015.1 |
| 20260903012006 | 80 | 219 | 0.0 | 0.9 | 0.00 | 0.00 | 0.00 | 86 | 1015.1 |
| 20260903011503 | 80 | 219 | 0.0 | 0.9 | 0.00 | 0.00 | 0.00 | 85 | 1015.1 |
| 20260903011005 | 80 | 219 | 0.0 | 0.0 | 0.00 | 0.00 | 0.00 | 84 | 1014.9 |
| 20260903010503 | 80 | 219 | 0.0 | 0.0 | 0.00 | 0.00 | 0.00 | 84 | 1014.8 |
| 20260903010006 | 80 | 219 | 0.0 | 0.0 | 0.00 | 0.00 | 0.00 | 84 | 1014.7 |
| 20260903005503 | 81 | 219 | 0.0 | 0.0 | 0.00 | 0.00 | 0.00 | 83 | 1014.7 |
| 20260903005001 | 81 | 219 | 0.0 | 0.0 | 0.00 | 0.00 | 0.00 | 82 | 1014.7 |
| 20260903004502 | 82 | 219 | 0.0 | 0.0 | 0.00 | 0.00 | 0.00 | 81 | 1014.6 |
| 20260903004002 | 82 | 219 | 0.0 | 0.0 | 0.00 | 0.00 | 0.00 | 80 | 1014.6 |
| 20260903003502 | 83 | 219 | 0.0 | 0.0 | 0.00 | 0.00 | 0.00 | 78 | 1014.5 |
| 20260903003003 | 83 | 219 | 0.0 | 0.0 | 0.00 | 0.00 | 0.00 | 77 | 1014.5 |
| 20260903002502 | 84 | 219 | 0.0 | 0.0 | 0.00 | 0.00 | 0.00 | 76 | 1014.5 |
| 20260903002002 | 84 | 219 | 0.0 | 0.0 | 0.00 | 0.00 | 0.00 | 75 | 1014.5 |
| 20260903001507 | 84 | 219 | 0.0 | 0.0 | 0.00 | 0.00 | 0.00 | 75 | 1014.5 |
| 20260903001001 | 85 | 219 | 0.0 | 0.0 | 0.00 | 0.00 | 0.00 | 73 | 1014.5 |
| 20260903000502 | 85 | 219 | 0.0 | 0.0 | 0.00 | 0.00 | 0.00 | 72 | 1014.6 |
| 20260903000002 | 86 | 219 | 0.0 | 0.0 | 0.00 | 0.00 | 0.00 | 71 | 1014.5 |
| 20260902235503 | 86 | 219 | 0.0 | 0.0 | 0.00 | 0.00 | 0.00 | 70 | 1014.4 |
| 20260902235101 | 87 | 219 | 0.0 | 1.7 | 0.00 | 0.00 | 0.00 | 70 | 1014.4 |
| 20260902234624 | 87 | 219 | 0.0 | 1.7 | 0.00 | 0.00 | 0.00 | 69 | 1014.4 |
| 20260902234103 | 87 | 197 | 0.0 | 0.0 | 0.00 | 0.00 | 0.00 | 69 | 1014.4 |
| 20260902233600 | 88 | 197 | 0.0 | 0.0 | 0.00 | 0.00 | 0.00 | 69 | 1014.4 |
| 20260902233100 | 88 | 196 | 0.0 | 0.0 | 0.00 | 0.00 | 0.00 | 68 | 1014.4 |
| 20260902232603 | 88 | 196 | 0.0 | 0.0 | 0.00 | 0.00 | 0.00 | 70 | 1014.4 |
| 20260902232059 | 88 | 196 | 0.0 | 0.0 | 0.00 | 0.00 | 0.00 | 67 | 1014.6 |
| 20260902231611 | 89 | 196 | 0.0 | 0.0 | 0.00 | 0.00 | 0.00 | 67 | 1014.5 |
| 20260902231059 | 89 | 196 | 0.0 | 2.6 | 0.00 | 0.00 | 0.00 | 66 | 1014.5 |
| 20260902230602 | 89 | 196 | 0.0 | 2.6 | 0.00 | 0.00 | 0.00 | 66 | 1014.6 |
| 20260902230502 | 89 | 196 | 0.0 | 2.6 | 0.00 | 0.00 | 0.00 | 65 | 1014.6 |
| 20260902230113 | 89 | 198 | 0.0 | 0.0 | 0.00 | 0.00 | 0.00 | 65 | 1014.6 |
| 20260902225559 | 90 | 198 | 0.0 | 0.0 | 0.00 | 0.00 | 0.00 | 64 | 1014.6 |
| 20260902225058 | 90 | 188 | 0.0 | 0.9 | 0.00 | 0.00 | 0.00 | 64 | 1014.6 |
| 20260902224602 | 90 | 187 | 0.0 | 3.5 | 0.00 | 0.00 | 0.00 | 63 | 1014.6 |
| 20260902224058 | 90 | 199 | 0.0 | 2.6 | 0.00 | 0.00 | 0.00 | 63 | 1014.6 |
| 20260902223558 | 91 | 178 | 0.0 | 0.9 | 0.00 | 0.00 | 0.00 | 63 | 1014.6 |
| 20260902223058 | 91 | 261 | 0.0 | 2.6 | 0.00 | 0.00 | 0.00 | 62 | 1014.6 |
| 20260902222558 | 91 | 193 | 0.0 | 2.6 | 0.00 | 0.00 | 0.00 | 61 | 1014.6 |
| 20260902222101 | 91 | 213 | 0.0 | 4.3 | 0.00 | 0.00 | 0.00 | 60 | 1014.5 |
| 20260902221557 | 92 | 211 | 0.0 | 4.3 | 0.00 | 0.00 | 0.00 | 59 | 1014.6 |
| 20260902221057 | 92 | 280 | 0.9 | 3.5 | 0.00 | 0.00 | 0.00 | 58 | 1014.5 |
| 20260902220559 | 92 | 275 | 0.0 | 3.5 | 0.00 | 0.00 | 0.00 | 59 | 1014.6 |
| 20260902215557 | 92 | 204 | 0.0 | 4.3 | 0.00 | 0.00 | 0.00 | 60 | 1014.6 |
| 20260902215055 | 92 | 200 | 1.7 | 4.3 | 0.00 | 0.00 | 0.00 | 57 | 1014.6 |
| 20260902214603 | 92 | 241 | 0.0 | 3.5 | 0.00 | 0.00 | 0.00 | 59 | 1014.7 |
| 20260902214055 | 93 | 218 | 0.0 | 2.6 | 0.00 | 0.00 | 0.00 | 57 | 1014.7 |
| 20260902213554 | 93 | 282 | 0.0 | 4.3 | 0.00 | 0.00 | 0.00 | 58 | 1014.7 |
| 20260902213054 | 92 | 216 | 0.0 | 4.3 | 0.00 | 0.00 | 0.00 | 59 | 1014.7 |
| 20260902212554 | 93 | 284 | 0.9 | 6.1 | 0.00 | 0.00 | 0.00 | 58 | 1014.8 |
| 20260902212055 | 93 | 196 | 0.9 | 6.1 | 0.00 | 0.00 | 0.00 | 58 | 1014.7 |
| 20260902211555 | 93 | 236 | 0.0 | 5.2 | 0.00 | 0.00 | 0.00 | 58 | 1014.8 |
| 20260902211054 | 92 | 175 | 1.7 | 5.2 | 0.00 | 0.00 | 0.00 | 58 | 1014.9 |
| 20260902210555 | 92 | 186 | 2.6 | 7.8 | 0.00 | 0.00 | 0.00 | 58 | 1014.9 |
| 20260902210055 | 93 | 190 | 2.6 | 7.8 | 0.00 | 0.00 | 0.00 | 56 | 1014.9 |
| 20260902205553 | 93 | 219 | 0.9 | 7.0 | 0.00 | 0.00 | 0.00 | 56 | 1014.9 |
| 20260902205054 | 93 | 170 | 1.7 | 7.0 | 0.00 | 0.00 | 0.00 | 57 | 1014.9 |
| 20260902204553 | 93 | 274 | 0.0 | 6.1 | 0.00 | 0.00 | 0.00 | 56 | 1014.9 |
| 20260902204052 | 93 | 226 | 0.0 | 6.1 | 0.00 | 0.00 | 0.00 | 56 | 1014.9 |
| 20260902203551 | 94 | 189 | 2.6 | 5.2 | 0.00 | 0.00 | 0.00 | 56 | 1015.0 |
| 20260902203052 | 94 | 282 | 0.0 | 5.2 | 0.00 | 0.00 | 0.00 | 55 | 1015.0 |
| 20260902202549 | 94 | 194 | 0.0 | 4.3 | 0.00 | 0.00 | 0.00 | 57 | 1015.0 |
| 20260902202049 | 94 | 205 | 0.9 | 5.2 | 0.00 | 0.00 | 0.00 | 57 | 1015.1 |
| 20260902201548 | 94 | 210 | 0.0 | 2.6 | 0.00 | 0.00 | 0.00 | 61 | 1015.1 |
| 20260902201050 | 94 | 300 | 0.0 | 0.9 | 0.00 | 0.00 | 0.00 | 61 | 1015.2 |
| 20260902200548 | 94 | 267 | 0.0 | 2.6 | 0.00 | 0.00 | 0.00 | 61 | 1015.2 |
| 20260902200047 | 94 | 269 | 0.0 | 5.2 | 0.00 | 0.00 | 0.00 | 59 | 1015.2 |
| 20260902195547 | 94 | 217 | 0.9 | 5.2 | 0.00 | 0.00 | 0.00 | 55 | 1015.4 |
| 20260902195044 | 94 | 213 | 0.9 | 5.2 | 0.00 | 0.00 | 0.00 | 55 | 1015.4 |
| 20260902194545 | 94 | 230 | 0.9 | 4.3 | 0.00 | 0.00 | 0.00 | 58 | 1015.5 |
| 20260902194045 | 95 | 217 | 0.0 | 8.7 | 0.00 | 0.00 | 0.00 | 56 | 1015.5 |
| 20260902193544 | 94 | 234 | 2.6 | 8.7 | 0.00 | 0.00 | 0.00 | 54 | 1015.5 |
| 20260902193043 | 93 | 260 | 0.0 | 3.5 | 0.00 | 0.00 | 0.00 | 56 | 1015.6 |
| 20260902192543 | 94 | 257 | 0.0 | 6.1 | 0.00 | 0.00 | 0.00 | 57 | 1015.7 |
| 20260902192044 | 94 | 261 | 1.7 | 7.0 | 0.00 | 0.00 | 0.00 | 56 | 1015.7 |
| 20260902191541 | 94 | 274 | 0.9 | 7.0 | 0.00 | 0.00 | 0.00 | 55 | 1015.8 |
| 20260902191040 | 94 | 233 | 1.7 | 6.1 | 0.00 | 0.00 | 0.00 | 56 | 1015.8 |
| 20260902190540 | 94 | 264 | 0.0 | 6.1 | 0.00 | 0.00 | 0.00 | 59 | 1015.8 |
| 20260902190041 | 94 | 267 | 0.9 | 4.3 | 0.00 | 0.00 | 0.00 | 58 | 1015.9 |
| 20260902185540 | 94 | 240 | 0.0 | 4.3 | 0.00 | 0.00 | 0.00 | 58 | 1016.0 |
| 20260902185045 | 93 | 188 | 0.9 | 7.8 | 0.00 | 0.00 | 0.00 | 59 | 1016.0 |
| 20260902184538 | 92 | 259 | 2.6 | 7.8 | 0.00 | 0.00 | 0.00 | 57 | 1016.0 |
| 20260902184038 | 93 | 292 | 0.9 | 4.3 | 0.00 | 0.00 | 0.00 | 59 | 1016.1 |
| 20260902183538 | 93 | 244 | 0.9 | 7.0 | 0.00 | 0.00 | 0.00 | 60 | 1016.1 |
| 20260902183040 | 93 | 284 | 0.9 | 7.0 | 0.00 | 0.00 | 0.00 | 59 | 1016.1 |
| 20260902182537 | 93 | 301 | 0.0 | 4.3 | 0.00 | 0.00 | 0.00 | 62 | 1016.2 |
| 20260902182037 | 92 | 233 | 0.0 | 5.2 | 0.00 | 0.00 | 0.00 | 61 | 1016.2 |
| 20260902181537 | 93 | 312 | 0.9 | 5.2 | 0.00 | 0.00 | 0.00 | 60 | 1016.3 |
| 20260902181035 | 92 | 219 | 0.0 | 5.2 | 0.00 | 0.00 | 0.00 | 62 | 1016.3 |
| 20260902180535 | 92 | 266 | 0.0 | 3.5 | 0.00 | 0.00 | 0.00 | 66 | 1016.4 |
| 20260902180040 | 92 | 232 | 0.9 | 5.2 | 0.00 | 0.00 | 0.00 | 63 | 1016.4 |
| 20260902175535 | 92 | 188 | 0.0 | 6.1 | 0.00 | 0.00 | 0.00 | 65 | 1016.4 |
| 20260902175036 | 91 | 271 | 0.9 | 7.0 | 0.00 | 0.00 | 0.00 | 62 | 1016.5 |
| 20260902174535 | 91 | 213 | 0.9 | 7.0 | 0.00 | 0.00 | 0.00 | 65 | 1016.6 |
| 20260902174035 | 92 | 286 | 0.0 | 5.2 | 0.00 | 0.00 | 0.00 | 64 | 1016.6 |
| 20260902173533 | 92 | 217 | 0.0 | 4.3 | 0.00 | 0.00 | 0.00 | 65 | 1016.6 |
| 20260902173035 | 92 | 245 | 0.9 | 4.3 | 0.00 | 0.00 | 0.00 | 63 | 1016.6 |
| 20260902172533 | 92 | 273 | 0.0 | 5.2 | 0.00 | 0.00 | 0.00 | 63 | 1016.7 |
| 20260902172032 | 91 | 294 | 0.9 | 5.2 | 0.00 | 0.00 | 0.00 | 64 | 1016.8 |
| 20260902171531 | 91 | 281 | 0.9 | 4.3 | 0.00 | 0.00 | 0.00 | 63 | 1016.9 |
| 20260902171029 | 91 | 223 | 0.9 | 7.0 | 0.00 | 0.00 | 0.00 | 63 | 1016.9 |
| 20260902170530 | 91 | 286 | 0.9 | 7.0 | 0.00 | 0.00 | 0.00 | 66 | 1016.9 |
| 20260902170030 | 90 | 243 | 0.9 | 6.1 | 0.00 | 0.00 | 0.00 | 63 | 1017.0 |
| 20260902165527 | 91 | 249 | 0.0 | 0.0 | 0.00 | 0.00 | 0.00 | 65 | 1016.9 |
| 20260902165030 | 91 | 188 | 0.0 | 0.0 | 0.00 | 0.00 | 0.00 | 65 | 1017.0 |
| 20260902164527 | 91 | 283 | 0.0 | 0.0 | 0.00 | 0.00 | 0.00 | 67 | 1017.0 |
| 20260902164025 | 91 | 279 | 0.0 | 0.0 | 0.00 | 0.00 | 0.00 | 67 | 1017.1 |
| 20260902163524 | 91 | 274 | 0.0 | 0.0 | 0.00 | 0.00 | 0.00 | 68 | 1017.1 |
| 20260902163023 | 91 | 245 | 0.0 | 0.0 | 0.00 | 0.00 | 0.00 | 70 | 1017.2 |
| 20260902162522 | 90 | 240 | 0.0 | 0.0 | 0.00 | 0.00 | 0.00 | 68 | 1017.2 |
| 20260902162021 | 90 | 284 | 0.0 | 0.0 | 0.00 | 0.00 | 0.00 | 70 | 1017.2 |
| 20260902161535 | 90 | 234 | 0.0 | 0.0 | 0.00 | 0.00 | 0.00 | 65 | 1017.2 |
| 20260902161021 | 89 | 264 | 0.0 | 0.0 | 0.00 | 0.00 | 0.00 | 68 | 1017.3 |
| 20260902160518 | 90 | 204 | 0.0 | 0.0 | 0.00 | 0.00 | 0.00 | 68 | 1017.3 |
| 20260902160018 | 90 | 251 | 0.0 | 0.0 | 0.00 | 0.00 | 0.00 | 73 | 1017.4 |
| 20260902155517 | 90 | 244 | 0.0 | 0.0 | 0.00 | 0.00 | 0.00 | 69 | 1017.4 |
| 20260902155018 | 90 | 257 | 0.0 | 0.0 | 0.00 | 0.00 | 0.00 | 71 | 1017.5 |
| 20260902154515 | 89 | 273 | 0.0 | 0.0 | 0.00 | 0.00 | 0.00 | 72 | 1017.5 |
| 20260902154013 | 89 | 271 | 0.0 | 0.0 | 0.00 | 0.00 | 0.00 | 73 | 1017.6 |
| 20260902153515 | 89 | 279 | 0.0 | 0.0 | 0.00 | 0.00 | 0.00 | 72 | 1017.6 |
| 20260902153012 | 89 | 242 | 0.0 | 0.0 | 0.00 | 0.00 | 0.00 | 72 | 1017.5 |
| 20260902152509 | 88 | 252 | 0.0 | 0.0 | 0.00 | 0.00 | 0.00 | 72 | 1017.5 |
| 20260902152008 | 88 | 248 | 0.0 | 0.0 | 0.00 | 0.00 | 0.00 | 72 | 1017.6 |
| 20260902151511 | 88 | 250 | 0.0 | 0.0 | 0.00 | 0.00 | 0.00 | 72 | 1017.6 |
| 20260902151005 | 87 | 279 | 0.0 | 0.0 | 0.00 | 0.00 | 0.00 | 72 | 1017.6 |
| 20260902150504 | 87 | 211 | 0.0 | 0.0 | 0.00 | 0.00 | 0.00 | 73 | 1017.5 |
| 20260902150004 | 87 | 206 | 0.0 | 0.0 | 0.00 | 0.00 | 0.00 | 76 | 1017.6 |
| 20260902145502 | 87 | 202 | 0.0 | 0.0 | 0.00 | 0.00 | 0.00 | 75 | 1017.6 |
| 20260902145100 | 87 | 253 | 0.0 | 0.0 | 0.00 | 0.00 | 0.00 | 75 | 1017.6 |
| 20260902144613 | 86 | 179 | 0.0 | 0.0 | 0.00 | 0.00 | 0.00 | 74 | 1017.6 |
| 20260902144058 | 86 | 198 | 0.0 | 0.0 | 0.00 | 0.00 | 0.00 | 77 | 1017.5 |
| 20260902143556 | 86 | 258 | 0.0 | 0.0 | 0.00 | 0.00 | 0.00 | 76 | 1017.5 |
| 20260902143056 | 85 | 273 | 0.0 | 0.0 | 0.00 | 0.00 | 0.00 | 78 | 1017.5 |
| 20260902142553 | 85 | 241 | 0.0 | 0.0 | 0.00 | 0.00 | 0.00 | 77 | 1017.6 |
| 20260902142052 | 85 | 219 | 0.0 | 0.0 | 0.00 | 0.00 | 0.00 | 77 | 1017.6 |
| 20260902141551 | 84 | 230 | 0.0 | 0.0 | 0.00 | 0.00 | 0.00 | 78 | 1017.6 |
| 20260902141051 | 84 | 228 | 0.0 | 0.0 | 0.00 | 0.00 | 0.00 | 79 | 1017.5 |
| 20260902140547 | 84 | 241 | 0.0 | 0.0 | 0.00 | 0.00 | 0.00 | 79 | 1017.5 |
| 20260902140049 | 83 | 248 | 0.0 | 0.0 | 0.00 | 0.00 | 0.00 | 81 | 1017.5 |
| 20260902135544 | 83 | 248 | 0.0 | 0.0 | 0.00 | 0.00 | 0.00 | 83 | 1017.6 |
| 20260902135042 | 83 | 259 | 0.0 | 0.0 | 0.00 | 0.00 | 0.00 | 81 | 1017.5 |
| 20260902134546 | 82 | 265 | 0.0 | 0.0 | 0.00 | 0.00 | 0.00 | 82 | 1017.4 |
| 20260902134040 | 82 | 242 | 0.0 | 0.0 | 0.00 | 0.00 | 0.00 | 82 | 1017.4 |
| 20260902133539 | 82 | 242 | 0.0 | 0.0 | 0.00 | 0.00 | 0.00 | 83 | 1017.4 |
| 20260902133038 | 81 | 221 | 0.0 | 0.0 | 0.00 | 0.00 | 0.00 | 84 | 1017.5 |
| 20260902132538 | 80 | 221 | 0.0 | 0.0 | 0.00 | 0.00 | 0.00 | 85 | 1017.5 |
| 20260902132034 | 80 | 221 | 0.0 | 0.0 | 0.00 | 0.00 | 0.00 | 86 | 1017.5 |
| 20260902131537 | 80 | 227 | 0.0 | 0.0 | 0.00 | 0.00 | 0.00 | 85 | 1017.5 |
| 20260902131032 | 79 | 227 | 0.0 | 0.0 | 0.00 | 0.00 | 0.00 | 87 | 1017.6 |
| 20260902130531 | 78 | 206 | 0.0 | 0.0 | 0.00 | 0.00 | 0.00 | 90 | 1017.6 |
| 20260902130029 | 78 | 206 | 0.0 | 0.0 | 0.00 | 0.00 | 0.00 | 92 | 1017.5 |
| 20260902125527 | 77 | 206 | 0.0 | 0.0 | 0.00 | 0.00 | 0.00 | 92 | 1017.4 |
| 20260902125029 | 76 | 206 | 0.0 | 0.0 | 0.00 | 0.00 | 0.00 | 93 | 1017.4 |
| 20260902124531 | 76 | 206 | 0.0 | 0.0 | 0.00 | 0.00 | 0.00 | 94 | 1017.4 |
| 20260902124022 | 75 | 206 | 0.0 | 0.0 | 0.00 | 0.00 | 0.00 | 95 | 1017.3 |
| 20260902123521 | 74 | 206 | 0.0 | 0.0 | 0.00 | 0.00 | 0.00 | 95 | 1017.3 |
| 20260902123020 | 74 | 206 | 0.0 | 0.0 | 0.00 | 0.00 | 0.00 | 96 | 1017.3 |
| 20260902122519 | 74 | 206 | 0.0 | 0.0 | 0.00 | 0.00 | 0.00 | 96 | 1017.3 |
| 20260902122017 | 73 | 206 | 0.0 | 0.0 | 0.00 | 0.00 | 0.00 | 96 | 1017.3 |
| 20260902121515 | 73 | 206 | 0.0 | 0.0 | 0.00 | 0.00 | 0.00 | 96 | 1017.3 |
| 20260902121014 | 72 | 206 | 0.0 | 0.0 | 0.00 | 0.00 | 0.00 | 96 | 1017.3 |
| 20260902120513 | 72 | 206 | 0.0 | 0.0 | 0.00 | 0.00 | 0.00 | 97 | 1017.3 |
| 20260902120020 | 71 | 206 | 0.0 | 0.0 | 0.00 | 0.00 | 0.00 | 96 | 1017.2 |
| 20260902115511 | 71 | 206 | 0.0 | 0.0 | 0.00 | 0.00 | 0.00 | 96 | 1017.1 |
| 20260902115008 | 71 | 206 | 0.0 | 0.0 | 0.00 | 0.00 | 0.00 | 96 | 1017.2 |
| 20260902114517 | 71 | 206 | 0.0 | 0.0 | 0.00 | 0.00 | 0.00 | 96 | 1017.1 |
| 20260902114005 | 70 | 206 | 0.0 | 0.0 | 0.00 | 0.00 | 0.00 | 96 | 1016.9 |
| 20260902113503 | 70 | 206 | 0.0 | 0.0 | 0.00 | 0.00 | 0.00 | 96 | 1016.8 |
| 20260902113003 | 70 | 206 | 0.0 | 0.0 | 0.00 | 0.00 | 0.00 | 95 | 1016.8 |
| 20260902112502 | 70 | 206 | 0.0 | 0.0 | 0.00 | 0.00 | 0.00 | 95 | 1016.8 |
| 20260902112004 | 70 | 206 | 0.0 | 0.0 | 0.00 | 0.00 | 0.00 | 95 | 1016.8 |
| 20260902111500 | 70 | 206 | 0.0 | 0.0 | 0.00 | 0.00 | 0.00 | 95 | 1016.8 |
| 20260902111100 | 70 | 206 | 0.0 | 0.0 | 0.00 | 0.00 | 0.00 | 95 | 1016.8 |
| 20260902110602 | 70 | 206 | 0.0 | 0.0 | 0.00 | 0.00 | 0.00 | 95 | 1016.7 |
| 20260902110001 | 70 | 206 | 0.0 | 0.0 | 0.00 | 0.00 | 0.00 | 95 | 1016.8 |
| 20260902105604 | 70 | 206 | 0.0 | 0.0 | 0.00 | 0.00 | 0.00 | 95 | 1016.8 |
| 20260902105059 | 70 | 206 | 0.0 | 0.0 | 0.00 | 0.00 | 0.00 | 95 | 1016.7 |
| 20260902104603 | 71 | 206 | 0.0 | 0.0 | 0.00 | 0.00 | 0.00 | 95 | 1016.8 |
| 20260902104059 | 71 | 206 | 0.0 | 0.0 | 0.00 | 0.00 | 0.00 | 95 | 1016.8 |
| 20260902103601 | 71 | 206 | 0.0 | 0.0 | 0.00 | 0.00 | 0.00 | 95 | 1016.8 |
| 20260902103117 | 71 | 206 | 0.0 | 0.0 | 0.00 | 0.00 | 0.00 | 95 | 1016.7 |
| 20260902102557 | 71 | 206 | 0.0 | 0.0 | 0.00 | 0.00 | 0.00 | 95 | 1016.7 |
| 20260902102057 | 71 | 206 | 0.0 | 0.0 | 0.00 | 0.00 | 0.00 | 95 | 1016.7 |
| 20260902101557 | 71 | 206 | 0.0 | 0.0 | 0.00 | 0.00 | 0.00 | 95 | 1016.6 |
| 20260902101056 | 71 | 206 | 0.0 | 0.0 | 0.00 | 0.00 | 0.00 | 95 | 1016.6 |
| 20260902100556 | 71 | 206 | 0.0 | 0.0 | 0.00 | 0.00 | 0.00 | 95 | 1016.6 |
| 20260902100056 | 71 | 206 | 0.0 | 0.0 | 0.00 | 0.00 | 0.00 | 95 | 1016.6 |
| 20260902095557 | 71 | 206 | 0.0 | 0.0 | 0.00 | 0.00 | 0.00 | 95 | 1016.6 |
| 20260902095055 | 71 | 206 | 0.0 | 0.0 | 0.00 | 0.00 | 0.00 | 95 | 1016.7 |
| 20260902094559 | 71 | 206 | 0.0 | 0.0 | 0.00 | 0.00 | 0.00 | 95 | 1016.6 |
| 20260902094055 | 71 | 206 | 0.0 | 0.0 | 0.00 | 0.00 | 0.00 | 95 | 1016.6 |
| 20260902093555 | 71 | 206 | 0.0 | 0.0 | 0.00 | 0.00 | 0.00 | 95 | 1016.7 |
| 20260902093103 | 71 | 206 | 0.0 | 0.0 | 0.00 | 0.00 | 0.00 | 95 | 1016.7 |
| 20260902092554 | 71 | 206 | 0.0 | 0.0 | 0.00 | 0.00 | 0.00 | 95 | 1016.6 |
| 20260902092057 | 71 | 206 | 0.0 | 0.0 | 0.00 | 0.00 | 0.00 | 95 | 1016.6 |
| 20260902091556 | 71 | 206 | 0.0 | 0.0 | 0.00 | 0.00 | 0.00 | 95 | 1016.5 |
| 20260902091055 | 71 | 206 | 0.0 | 0.0 | 0.00 | 0.00 | 0.00 | 95 | 1016.5 |
| 20260902090556 | 71 | 206 | 0.0 | 0.0 | 0.00 | 0.00 | 0.00 | 95 | 1016.5 |
| 20260902090059 | 71 | 206 | 0.0 | 0.0 | 0.00 | 0.00 | 0.00 | 95 | 1016.5 |
| 20260902085554 | 71 | 206 | 0.0 | 0.0 | 0.00 | 0.00 | 0.00 | 95 | 1016.4 |
| 20260902085050 | 71 | 206 | 0.0 | 0.0 | 0.00 | 0.00 | 0.00 | 95 | 1016.4 |
| 20260902084550 | 71 | 206 | 0.0 | 0.0 | 0.00 | 0.00 | 0.00 | 95 | 1016.3 |
| 20260902084053 | 71 | 206 | 0.0 | 0.0 | 0.00 | 0.00 | 0.00 | 95 | 1016.3 |
| 20260902083550 | 71 | 206 | 0.0 | 0.0 | 0.00 | 0.00 | 0.00 | 95 | 1016.3 |
| 20260902083048 | 71 | 206 | 0.0 | 0.0 | 0.00 | 0.00 | 0.00 | 95 | 1016.2 |
| 20260902082548 | 71 | 206 | 0.0 | 0.0 | 0.00 | 0.00 | 0.00 | 95 | 1016.2 |
| 20260902082047 | 71 | 206 | 0.0 | 0.0 | 0.00 | 0.00 | 0.00 | 95 | 1016.2 |
| 20260902081550 | 71 | 206 | 0.0 | 0.0 | 0.00 | 0.00 | 0.00 | 95 | 1016.1 |
| 20260902081046 | 71 | 206 | 0.0 | 0.0 | 0.00 | 0.00 | 0.00 | 95 | 1016.1 |
| 20260902080546 | 71 | 206 | 0.0 | 0.0 | 0.00 | 0.00 | 0.00 | 95 | 1016.0 |
| 20260902080046 | 72 | 206 | 0.0 | 0.0 | 0.00 | 0.00 | 0.00 | 95 | 1016.0 |
| 20260902075545 | 72 | 206 | 0.0 | 0.0 | 0.00 | 0.00 | 0.00 | 95 | 1016.0 |
| 20260902075045 | 72 | 206 | 0.0 | 0.0 | 0.00 | 0.00 | 0.00 | 95 | 1015.9 |
| 20260902074555 | 72 | 206 | 0.0 | 0.0 | 0.00 | 0.00 | 0.00 | 95 | 1015.9 |
| 20260902074044 | 72 | 206 | 0.0 | 0.0 | 0.00 | 0.00 | 0.00 | 95 | 1016.0 |
| 20260902073548 | 72 | 206 | 0.0 | 0.0 | 0.00 | 0.00 | 0.00 | 95 | 1015.9 |
| 20260902073046 | 72 | 206 | 0.0 | 0.0 | 0.00 | 0.00 | 0.00 | 95 | 1015.9 |
| 20260902072544 | 72 | 206 | 0.0 | 0.0 | 0.00 | 0.00 | 0.00 | 95 | 1015.8 |
| 20260902072043 | 72 | 206 | 0.0 | 0.0 | 0.00 | 0.00 | 0.00 | 95 | 1015.8 |
| 20260902071546 | 72 | 206 | 0.0 | 0.0 | 0.00 | 0.00 | 0.00 | 95 | 1015.8 |
| 20260902071044 | 72 | 206 | 0.0 | 0.0 | 0.00 | 0.00 | 0.00 | 95 | 1015.8 |
| 20260902070544 | 72 | 206 | 0.0 | 0.0 | 0.00 | 0.00 | 0.00 | 95 | 1015.8 |
| 20260902070044 | 72 | 206 | 0.0 | 0.0 | 0.00 | 0.00 | 0.00 | 95 | 1015.8 |
| 20260902065543 | 72 | 206 | 0.0 | 0.0 | 0.00 | 0.00 | 0.00 | 95 | 1015.7 |
| 20260902065046 | 72 | 206 | 0.0 | 0.0 | 0.00 | 0.00 | 0.00 | 95 | 1015.8 |
| 20260902064542 | 72 | 206 | 0.0 | 0.0 | 0.00 | 0.00 | 0.00 | 95 | 1015.8 |
| 20260902064045 | 72 | 206 | 0.0 | 0.0 | 0.00 | 0.00 | 0.00 | 95 | 1015.8 |
| 20260902063541 | 72 | 206 | 0.0 | 0.0 | 0.00 | 0.00 | 0.00 | 95 | 1015.8 |
| 20260902063041 | 72 | 206 | 0.0 | 0.0 | 0.00 | 0.00 | 0.00 | 95 | 1015.8 |
| 20260902062541 | 72 | 206 | 0.0 | 0.0 | 0.00 | 0.00 | 0.00 | 95 | 1015.8 |
| 20260902062042 | 72 | 206 | 0.0 | 0.0 | 0.00 | 0.00 | 0.00 | 95 | 1015.9 |
| 20260902061547 | 72 | 206 | 0.0 | 0.0 | 0.00 | 0.00 | 0.00 | 95 | 1015.8 |
| 20260902061042 | 72 | 206 | 0.0 | 0.0 | 0.00 | 0.00 | 0.00 | 94 | 1015.7 |
| 20260902060539 | 72 | 206 | 0.0 | 0.0 | 0.00 | 0.00 | 0.00 | 95 | 1015.8 |
| 20260902060051 | 73 | 206 | 0.0 | 0.0 | 0.00 | 0.00 | 0.00 | 94 | 1015.8 |
| 20260902055541 | 73 | 206 | 0.0 | 0.0 | 0.00 | 0.00 | 0.00 | 94 | 1015.9 |
| 20260902055037 | 73 | 206 | 0.0 | 0.0 | 0.00 | 0.00 | 0.00 | 94 | 1016.0 |
| 20260902054541 | 73 | 206 | 0.0 | 0.0 | 0.00 | 0.00 | 0.00 | 94 | 1016.0 |
| 20260902054039 | 73 | 206 | 0.0 | 0.0 | 0.00 | 0.00 | 0.00 | 94 | 1015.9 |
| 20260902053541 | 73 | 206 | 0.0 | 0.0 | 0.00 | 0.00 | 0.00 | 94 | 1015.9 |
| 20260902053046 | 73 | 206 | 0.0 | 0.0 | 0.00 | 0.00 | 0.00 | 94 | 1015.9 |
| 20260902052537 | 73 | 206 | 0.0 | 0.0 | 0.00 | 0.00 | 0.00 | 94 | 1015.9 |
| 20260902052036 | 73 | 206 | 0.0 | 0.0 | 0.00 | 0.00 | 0.00 | 94 | 1016.0 |
| 20260902051540 | 73 | 206 | 0.0 | 0.0 | 0.00 | 0.00 | 0.00 | 93 | 1015.9 |
| 20260902051037 | 73 | 206 | 0.0 | 0.0 | 0.00 | 0.00 | 0.00 | 93 | 1015.9 |
| 20260902050535 | 73 | 206 | 0.0 | 0.0 | 0.00 | 0.00 | 0.00 | 93 | 1015.9 |
| 20260902050035 | 74 | 206 | 0.0 | 0.0 | 0.00 | 0.00 | 0.00 | 93 | 1015.9 |
| 20260902045535 | 74 | 206 | 0.0 | 0.0 | 0.00 | 0.00 | 0.00 | 93 | 1015.9 |
| 20260902045033 | 74 | 206 | 0.0 | 0.0 | 0.00 | 0.00 | 0.00 | 93 | 1015.9 |
| 20260902044533 | 74 | 206 | 0.0 | 0.0 | 0.00 | 0.00 | 0.00 | 93 | 1015.8 |
| 20260902044033 | 74 | 206 | 0.0 | 0.0 | 0.00 | 0.00 | 0.00 | 93 | 1015.8 |